Flag for Zimbabwe Weather past 2 weeks in Harare, Zimbabwe

Now
61 °F

Clear.


Feels Like: 61 °F
Forecast: 62 / 72 °F
Wind: 9 mph from East

Location: Harare Kutsaga Airport

Current Time: Mar 30, 2015 at 8:15:14 AM

Latest Report: Mar 30, 2015 at 6:00 AM


Visibility: 10 mi

Pressure: 30.15 "Hg

Humidity: 100%

Dew point: 61 °F

Location of HarareLocation

Historic Weather in Harare — Graph

°F

Harare temperature yesterday

Maximum temperature yesterday: 77 °F (at 1:00 PM)
Minimum temperature yesterday: 61 °F (at 12:00 AM)
Average temperature yesterday: 68 °F

Past Weeks' High & Low Weather Summary

 TemperatureHumidityPressure
High84 °F (Mar 17, 1:00 PM)100% (Mar 15, 6:00 AM)30.30 "Hg (Mar 15, 6:00 AM)
Low54 °F (Mar 15, 6:00 AM)32% (Mar 15, 2:00 PM)29.92 "Hg (Mar 20, 12:00 AM)
Average71 °F71%30.20 "Hg
* Reported Mar 15 6:00 AM — Mar 30 6:00 AM, Harare, Weather by CustomWeather, © 2015

Note: Actual official high and low records may vary slightly from our data, if they occured in-between our weather recording intervals... More about our weather records

Advertising

Harare weather history for previous 24 hours

 ConditionsComfort  
Time TempWeatherWind HumidityBarometerVisibility
6:00 AM
Mon, Mar 30
61 °FClear.9 mph100%30.15 "Hg10 mi
5:00 AM61 °FPassing clouds.8 mph100%30.15 "HgN/A
4:00 AM61 °FPassing clouds.6 mph100%30.15 "HgN/A
3:00 AM61 °FPassing clouds.2 mph100%30.15 "HgN/A
2:00 AM61 °FPassing clouds.5 mph100%30.15 "HgN/A
1:00 AM61 °FPassing clouds.7 mph100%30.18 "HgN/A
11:00 PM
Sun, Mar 29
63 °FThunderstorms. Mostly cloudy.9 mph100%30.21 "HgN/A
7:00 PM66 °FPassing clouds.10 mph100%30.15 "HgN/A
4:00 PM75 °FBroken clouds.9 mph65%30.07 "HgN/A
3:00 PM77 °FBroken clouds.14 mph57%30.07 "HgN/A
2:00 PM77 °FPartly sunny.13 mph61%30.09 "HgN/A
1:00 PM77 °FPartly sunny.13 mph61%30.12 "HgN/A
12:00 PM73 °FPartly sunny.14 mph69%30.18 "HgN/A
11:00 AM73 °FBroken clouds.15 mph69%30.18 "HgN/A
10:00 AM70 °FPartly sunny.13 mph83%30.21 "HgN/A
9:00 AM70 °FPartly sunny.13 mph88%30.21 "HgN/A
8:00 AM66 °FPartly sunny.9 mph100%30.21 "HgN/A
Weather by CustomWeather, © 2015

See weather overviewHow to use our weather pages